TimeCST,TemperatureF,Dew PointF,Humidity,Sea Level PressureIn,VisibilityMPH,Wind Direction,Wind SpeedMPH,Gust SpeedMPH,PrecipitationIn,Events,Conditions,WindDirDegrees,DateUTC
12:15 AM,63.0,59.0,87,30.20,7.0,Calm,Calm,-,N/A,,Mostly Cloudy,0,2013-12-01 06:15:00
12:35 AM,62.8,58.5,86,30.18,10.0,Calm,Calm,-,N/A,,Mostly Cloudy,0,2013-12-01 06:35:00
12:55 AM,62.1,58.1,87,30.19,7.0,Calm,Calm,-,N/A,,Mostly Cloudy,0,2013-12-01 06:55:00
1:15 AM,61.7,58.1,88,30.18,7.0,Calm,Calm,-,N/A,,Mostly Cloudy,0,2013-12-01 07:15:00
1:35 AM,61.5,58.1,89,30.18,7.0,Calm,Calm,-,N/A,,Mostly Cloudy,0,2013-12-01 07:35:00
1:55 AM,61.0,57.9,90,30.17,7.0,Calm,Calm,-,N/A,,Scattered Clouds,0,2013-12-01 07:55:00
2:15 AM,61.0,57.6,88,30.17,7.0,Calm,Calm,-,N/A,,Scattered Clouds,0,2013-12-01 08:15:00
2:35 AM,59.7,57.0,91,30.17,7.0,Calm,Calm,-,N/A,,Scattered Clouds,0,2013-12-01 08:35:00
2:55 AM,60.1,57.0,90,30.17,7.0,Calm,Calm,-,N/A,,Scattered Clouds,0,2013-12-01 08:55:00
3:15 AM,60.1,57.2,90,30.17,7.0,SSE,3.5,-,N/A,,Mostly Cloudy,150,2013-12-01 09:15:00
3:35 AM,60.8,57.4,88,30.17,7.0,SE,3.5,-,N/A,,Mostly Cloudy,140,2013-12-01 09:35:00
3:55 AM,60.1,56.5,88,30.17,7.0,Calm,Calm,-,N/A,,Scattered Clouds,0,2013-12-01 09:55:00
4:15 AM,59.9,56.8,90,30.17,7.0,Calm,Calm,-,N/A,,Mostly Cloudy,0,2013-12-01 10:15:00
4:35 AM,59.9,56.8,90,30.16,7.0,Calm,Calm,-,N/A,,Scattered Clouds,0,2013-12-01 10:35:00
4:55 AM,58.1,55.4,91,30.15,5.0,Calm,Calm,-,N/A,,Clear,0,2013-12-01 10:55:00
5:15 AM,57.7,55.4,92,30.15,7.0,Calm,Calm,-,N/A,,Clear,0,2013-12-01 11:15:00
5:35 AM,57.7,55.4,92,30.15,7.0,SSE,3.5,-,N/A,,Clear,150,2013-12-01 11:35:00
5:55 AM,59.0,56.7,92,30.15,5.0,SSE,3.5,-,N/A,,Clear,160,2013-12-01 11:55:00
6:15 AM,59.9,57.6,92,30.15,7.0,Calm,Calm,-,N/A,,Clear,0,2013-12-01 12:15:00
6:35 AM,59.2,57.0,93,30.16,7.0,SSE,3.5,-,N/A,,Clear,150,2013-12-01 12:35:00
6:55 AM,59.4,57.0,92,30.16,7.0,Calm,Calm,-,N/A,,Clear,0,2013-12-01 12:55:00
7:15 AM,59.2,57.2,93,30.17,5.0,Calm,Calm,-,N/A,,Clear,0,2013-12-01 13:15:00
7:35 AM,59.0,56.7,92,30.17,2.5,Calm,Calm,-,N/A,,Clear,0,2013-12-01 13:35:00
7:55 AM,61.7,59.4,92,30.17,7.0,SE,3.5,-,N/A,,Clear,140,2013-12-01 13:55:00
8:15 AM,63.7,60.8,90,30.18,10.0,Calm,Calm,-,N/A,,Clear,0,2013-12-01 14:15:00
8:35 AM,66.0,61.5,85,30.18,10.0,Calm,Calm,-,N/A,,Clear,0,2013-12-01 14:35:00
8:55 AM,68.5,61.9,79,30.18,7.0,South,4.6,-,N/A,,Scattered Clouds,190,2013-12-01 14:55:00
9:15 AM,70.0,61.5,74,30.19,10.0,South,5.8,-,N/A,,Scattered Clouds,180,2013-12-01 15:15:00
9:35 AM,71.1,61.3,71,30.19,10.0,SSE,6.9,-,N/A,,Mostly Cloudy,160,2013-12-01 15:35:00
9:55 AM,71.6,61.9,71,30.19,7.0,South,8.1,-,N/A,,Scattered Clouds,170,2013-12-01 15:55:00
10:15 AM,73.0,62.4,69,30.18,7.0,South,8.1,-,N/A,,Scattered Clouds,190,2013-12-01 16:15:00
10:35 AM,74.1,62.2,66,30.18,7.0,South,10.4,16.1,N/A,,Scattered Clouds,180,2013-12-01 16:35:00
10:55 AM,74.8,62.2,65,30.17,7.0,South,12.7,16.1,N/A,,Scattered Clouds,180,2013-12-01 16:55:00
11:15 AM,75.9,62.4,63,30.16,10.0,South,8.1,-,N/A,,Scattered Clouds,170,2013-12-01 17:15:00
11:35 AM,74.5,62.2,66,30.16,10.0,South,11.5,18.4,N/A,,Mostly Cloudy,170,2013-12-01 17:35:00
11:55 AM,77.4,62.1,59,30.14,7.0,South,13.8,17.3,N/A,,Mostly Cloudy,170,2013-12-01 17:55:00
12:15 PM,75.7,62.4,63,30.13,7.0,South,12.7,-,N/A,,Mostly Cloudy,180,2013-12-01 18:15:00
12:35 PM,76.6,62.1,61,30.11,7.0,South,13.8,-,N/A,,Mostly Cloudy,170,2013-12-01 18:35:00
12:55 PM,76.8,61.7,59,30.10,10.0,South,10.4,-,N/A,,Mostly Cloudy,170,2013-12-01 18:55:00
1:15 PM,76.3,61.3,60,30.09,7.0,SSE,9.2,16.1,N/A,,Mostly Cloudy,160,2013-12-01 19:15:00
1:35 PM,78.1,61.0,56,30.08,10.0,SSW,11.5,-,N/A,,Scattered Clouds,200,2013-12-01 19:35:00
1:55 PM,78.4,61.3,56,30.07,7.0,South,10.4,-,N/A,,Scattered Clouds,180,2013-12-01 19:55:00
2:15 PM,78.4,61.9,57,30.06,10.0,SSW,8.1,-,N/A,,Mostly Cloudy,200,2013-12-01 20:15:00
2:35 PM,77.5,60.6,56,30.05,10.0,South,10.4,-,N/A,,Mostly Cloudy,180,2013-12-01 20:35:00
2:55 PM,76.6,60.6,58,30.05,10.0,SSE,8.1,-,N/A,,Mostly Cloudy,150,2013-12-01 20:55:00
3:15 PM,76.3,60.1,57,30.04,7.0,SSE,9.2,-,N/A,,Mostly Cloudy,150,2013-12-01 21:15:00
3:35 PM,77.7,60.6,55,30.03,10.0,SSE,12.7,-,N/A,,Scattered Clouds,160,2013-12-01 21:35:00
3:55 PM,76.1,59.9,57,30.03,7.0,SSE,9.2,-,N/A,,Scattered Clouds,150,2013-12-01 21:55:00
4:15 PM,76.3,59.4,56,30.03,7.0,SSE,10.4,16.1,N/A,,Scattered Clouds,160,2013-12-01 22:15:00
4:35 PM,75.4,61.0,61,30.03,7.0,SSE,11.5,-,N/A,,Clear,160,2013-12-01 22:35:00
4:55 PM,74.7,61.0,62,30.03,7.0,South,11.5,-,N/A,,Clear,170,2013-12-01 22:55:00
5:15 PM,73.4,60.4,64,30.03,10.0,SSE,10.4,-,N/A,,Clear,160,2013-12-01 23:15:00
5:35 PM,71.6,60.8,69,30.04,10.0,SSE,8.1,-,N/A,,Clear,160,2013-12-01 23:35:00
5:55 PM,70.7,61.3,72,30.04,10.0,SSE,4.6,-,N/A,,Clear,150,2013-12-01 23:55:00
6:15 PM,69.8,61.7,75,30.04,10.0,SSE,5.8,-,N/A,,Clear,150,2013-12-02 00:15:00
6:35 PM,69.1,61.7,77,30.04,10.0,SSE,6.9,-,N/A,,Clear,160,2013-12-02 00:35:00
6:55 PM,68.2,61.7,80,30.03,10.0,SSE,8.1,-,N/A,,Clear,160,2013-12-02 00:55:00
7:15 PM,67.5,61.7,82,30.04,10.0,SSE,5.8,-,N/A,,Clear,160,2013-12-02 01:15:00
7:35 PM,67.3,62.1,83,30.04,10.0,SSE,3.5,-,N/A,,Clear,160,2013-12-02 01:35:00
7:55 PM,66.9,61.9,84,30.04,10.0,Calm,Calm,-,N/A,,Clear,0,2013-12-02 01:55:00
8:15 PM,66.2,61.7,85,30.05,10.0,Calm,Calm,-,N/A,,Clear,0,2013-12-02 02:15:00
8:35 PM,65.3,61.5,88,30.05,10.0,Calm,Calm,-,N/A,,Clear,0,2013-12-02 02:35:00
8:55 PM,64.6,61.3,89,30.05,10.0,South,3.5,-,N/A,,Clear,170,2013-12-02 02:55:00
9:15 PM,64.6,61.7,90,30.04,7.0,South,4.6,-,N/A,,Clear,170,2013-12-02 03:15:00
9:35 PM,64.4,61.7,91,30.04,10.0,South,4.6,-,N/A,,Clear,170,2013-12-02 03:35:00
9:55 PM,64.6,61.7,90,30.04,10.0,South,4.6,-,N/A,,Clear,170,2013-12-02 03:55:00
10:15 PM,64.4,61.2,89,30.04,7.0,South,4.6,-,N/A,,Clear,180,2013-12-02 04:15:00
10:35 PM,64.4,61.0,89,30.03,10.0,South,5.8,-,N/A,,Clear,180,2013-12-02 04:35:00
10:55 PM,64.4,61.0,89,30.01,10.0,South,5.8,-,N/A,,Clear,170,2013-12-02 04:55:00
11:15 PM,64.4,61.2,89,30.01,10.0,South,6.9,-,N/A,,Clear,180,2013-12-02 05:15:00
11:35 PM,64.4,61.3,90,30.00,10.0,South,6.9,-,N/A,,Clear,180,2013-12-02 05:35:00
11:55 PM,64.8,61.7,90,30.00,7.0,South,6.9,-,N/A,,Clear,190,2013-12-02 05:55:00